Time,TemperatureF,DewpointF,PressureIn,WindDirection,WindDirectionDegrees,WindSpeedMPH,WindSpeedGustMPH,Humidity,HourlyPrecipIn,Conditions,Clouds,dailyrainin,SolarRadiationWatts/m^2,SoftwareType,DateUTC
2013-02-20 00:03:00,52.2,33.6,30.16,East,93,6.0,8.0,49,0.00,,---,0.00,0.00,VWS V14.00,2013-02-20 06:03:00,
2013-02-20 00:11:00,52.2,36.1,30.15,East,92,4.0,8.0,54,0.00,,---,0.00,0.00,VWS V14.00,2013-02-20 06:11:00,
2013-02-20 00:19:00,52.1,34.5,30.15,East,79,4.0,8.0,51,0.00,,---,0.00,0.00,VWS V14.00,2013-02-20 06:19:00,
2013-02-20 00:28:00,52.1,35.0,30.15,East,81,2.0,8.0,52,0.00,,---,0.00,0.00,VWS V14.00,2013-02-20 06:28:00,
2013-02-20 00:35:00,52.2,34.6,30.15,East,84,1.0,8.0,51,0.00,,---,0.00,0.00,VWS V14.00,2013-02-20 06:35:00,
2013-02-20 00:44:00,52.1,34.5,30.15,East,83,3.0,4.0,51,0.00,,---,0.00,0.00,VWS V14.00,2013-02-20 06:44:00,
2013-02-20 00:52:00,52.3,31.6,30.15,ESE,108,3.0,6.0,45,0.00,,---,0.00,0.00,VWS V14.00,2013-02-20 06:52:00,
2013-02-20 01:00:00,52.5,30.7,30.15,East,101,4.0,6.0,43,0.00,,---,0.00,0.00,VWS V14.00,2013-02-20 07:00:00,
2013-02-20 01:05:00,52.5,32.3,30.15,East,94,4.0,6.0,46,0.00,,---,0.00,0.00,VWS V14.00,2013-02-20 07:05:00,
2013-02-20 01:12:00,52.6,33.5,30.15,East,98,3.0,4.0,48,0.00,,---,0.00,0.00,VWS V14.00,2013-02-20 07:12:00,
2013-02-20 01:20:00,52.6,32.4,30.16,East,99,3.0,4.0,46,0.00,,---,0.00,0.00,VWS V14.00,2013-02-20 07:20:00,
2013-02-20 01:28:00,52.4,32.2,30.16,ESE,107,1.0,4.0,46,0.00,,---,0.00,0.00,VWS V14.00,2013-02-20 07:28:00,
2013-02-20 01:35:00,52.3,32.2,30.16,East,86,3.0,4.0,46,0.00,,---,0.00,0.00,VWS V14.00,2013-02-20 07:35:00,
2013-02-20 01:40:00,52.2,32.6,30.16,ENE,76,5.0,5.0,47,0.00,,---,0.00,0.00,VWS V14.00,2013-02-20 07:40:00,
2013-02-20 01:48:00,52.3,33.7,30.16,ENE,75,2.0,5.0,49,0.00,,---,0.00,0.00,VWS V14.00,2013-02-20 07:48:00,
2013-02-20 01:57:00,52.3,33.7,30.17,ENE,76,1.0,5.0,49,0.00,,---,0.00,0.00,VWS V14.00,2013-02-20 07:57:00,
2013-02-20 02:05:00,52.3,33.7,30.17,ENE,76,3.0,5.0,49,0.00,,---,0.00,0.00,VWS V14.00,2013-02-20 08:05:00,
2013-02-20 02:13:00,52.3,35.2,30.17,ENE,76,3.0,4.0,52,0.00,,---,0.00,0.00,VWS V14.00,2013-02-20 08:13:00,
2013-02-20 02:21:00,52.2,36.5,30.17,East,81,5.0,6.0,55,0.00,,---,0.00,0.00,VWS V14.00,2013-02-20 08:21:00,
2013-02-20 02:29:00,52.3,36.6,30.17,East,81,4.0,6.0,55,0.00,,---,0.00,0.00,VWS V14.00,2013-02-20 08:29:00,
2013-02-20 02:35:00,52.0,36.8,30.17,ENE,76,0.0,6.0,56,0.00,,---,0.00,0.00,VWS V14.00,2013-02-20 08:35:00,
2013-02-20 02:41:00,51.5,35.4,30.17,ENE,76,2.0,3.0,54,0.00,,---,0.00,0.00,VWS V14.00,2013-02-20 08:41:00,
2013-02-20 02:49:00,51.5,35.9,30.17,East,83,4.0,5.0,55,0.00,,---,0.00,0.00,VWS V14.00,2013-02-20 08:49:00,
2013-02-20 02:57:00,51.6,35.0,30.16,ENE,74,2.0,7.0,53,0.00,,---,0.00,0.00,VWS V14.00,2013-02-20 08:57:00,
2013-02-20 03:05:00,51.2,35.1,30.14,NE,48,3.0,7.0,54,0.00,,---,0.00,0.00,VWS V14.00,2013-02-20 09:05:00,
2013-02-20 03:13:00,50.9,35.8,30.14,North,11,6.0,6.0,56,0.00,,---,0.00,0.00,VWS V14.00,2013-02-20 09:13:00,
2013-02-20 03:22:00,50.4,35.3,30.14,ENE,59,2.0,6.0,56,0.00,,---,0.00,0.00,VWS V14.00,2013-02-20 09:22:00,
2013-02-20 03:30:00,49.9,36.6,30.14,East,85,3.0,6.0,60,0.00,,---,0.00,0.00,VWS V14.00,2013-02-20 09:30:00,
2013-02-20 03:35:00,49.9,37.0,30.12,ENE,72,4.0,7.0,61,0.00,,---,0.00,0.00,VWS V14.00,2013-02-20 09:35:00,
2013-02-20 03:42:00,49.7,36.8,30.12,North,5,5.0,6.0,61,0.00,,---,0.00,0.00,VWS V14.00,2013-02-20 09:42:00,
2013-02-20 03:50:00,49.3,36.4,30.12,NE,51,2.0,6.0,61,0.00,,---,0.00,0.00,VWS V14.00,2013-02-20 09:50:00,
2013-02-20 03:58:00,49.2,35.9,30.12,ENE,71,6.0,10.0,60,0.00,,---,0.00,0.00,VWS V14.00,2013-02-20 09:58:00,
2013-02-20 04:05:00,49.2,36.8,30.13,East,86,7.0,10.0,62,0.00,,---,0.00,0.00,VWS V14.00,2013-02-20 10:05:00,
2013-02-20 04:14:00,49.1,36.2,30.13,ENE,78,9.0,12.0,61,0.00,,---,0.00,0.00,VWS V14.00,2013-02-20 10:14:00,
2013-02-20 04:22:00,49.0,35.7,30.12,ENE,78,7.0,12.0,60,0.00,,---,0.00,0.00,VWS V14.00,2013-02-20 10:22:00,
2013-02-20 04:30:00,48.8,36.4,30.12,ENE,76,10.0,12.0,62,0.00,,---,0.00,0.00,VWS V14.00,2013-02-20 10:30:00,
2013-02-20 04:39:00,48.6,36.2,30.10,NE,55,1.0,4.0,62,0.00,,---,0.00,0.00,VWS V14.00,2013-02-20 10:39:00,
2013-02-20 04:47:00,48.3,37.1,30.10,ENE,66,5.0,6.0,65,0.00,,---,0.00,0.00,VWS V14.00,2013-02-20 10:47:00,
2013-02-20 04:55:00,48.1,35.7,30.12,SE,146,1.0,6.0,62,0.00,,---,0.00,0.00,VWS V14.00,2013-02-20 10:55:00,
2013-02-20 05:03:00,48.0,36.0,30.12,East,81,7.0,7.0,63,0.00,,---,0.00,0.00,VWS V14.00,2013-02-20 11:03:00,
2013-02-20 05:11:00,48.0,35.6,30.15,East,79,1.0,7.0,62,0.00,,---,0.00,0.00,VWS V14.00,2013-02-20 11:11:00,
2013-02-20 05:19:00,48.2,36.6,30.15,East,79,5.0,8.0,64,0.00,,---,0.00,0.00,VWS V14.00,2013-02-20 11:19:00,
2013-02-20 05:27:00,47.9,36.3,30.15,NE,42,0.0,8.0,64,0.00,,---,0.00,0.00,VWS V14.00,2013-02-20 11:27:00,
2013-02-20 05:35:00,47.9,36.7,30.16,East,79,4.0,8.0,65,0.00,,---,0.00,0.00,VWS V14.00,2013-02-20 11:35:00,
2013-02-20 05:43:00,47.9,35.5,30.16,ENE,63,2.0,7.0,62,0.00,,---,0.00,0.00,VWS V14.00,2013-02-20 11:43:00,
2013-02-20 05:51:00,47.9,36.3,30.16,ENE,77,9.0,9.0,64,0.00,,---,0.00,0.00,VWS V14.00,2013-02-20 11:51:00,
2013-02-20 06:00:00,47.9,37.1,30.16,East,84,9.0,9.0,66,0.00,,---,0.00,0.00,VWS V14.00,2013-02-20 12:00:00,
2013-02-20 06:06:00,47.8,36.6,30.11,ENE,77,11.0,13.0,65,0.00,,---,0.00,0.00,VWS V14.00,2013-02-20 12:06:00,
2013-02-20 06:12:00,47.7,36.5,30.11,ENE,78,11.0,12.0,65,0.00,,---,0.00,0.00,VWS V14.00,2013-02-20 12:12:00,
2013-02-20 06:20:00,47.5,37.8,30.10,East,81,11.0,13.0,69,0.00,,---,0.00,0.00,VWS V14.00,2013-02-20 12:20:00,
2013-02-20 06:28:00,47.2,37.2,30.10,ENE,69,9.0,13.0,68,0.00,,---,0.00,0.00,VWS V14.00,2013-02-20 12:28:00,
2013-02-20 06:35:00,47.2,37.6,30.10,East,96,10.0,13.0,69,0.00,,---,0.00,0.00,VWS V14.00,2013-02-20 12:35:00,
2013-02-20 06:44:00,47.0,36.6,30.10,East,96,7.0,11.0,67,0.00,,---,0.00,0.00,VWS V14.00,2013-02-20 12:44:00,
2013-02-20 06:52:00,46.7,36.0,30.11,East,92,7.0,11.0,66,0.00,,---,0.00,0.00,VWS V14.00,2013-02-20 12:52:00,
2013-02-20 07:00:00,46.7,37.1,30.11,East,96,8.0,11.0,69,0.00,,---,0.00,0.00,VWS V14.00,2013-02-20 13:00:00,
2013-02-20 07:06:00,46.9,37.3,30.09,East,89,9.0,11.0,69,0.00,,---,0.00,0.00,VWS V14.00,2013-02-20 13:06:00,
2013-02-20 07:13:00,46.9,36.9,30.09,East,86,6.0,12.0,68,0.00,,---,0.00,0.00,VWS V14.00,2013-02-20 13:13:00,
2013-02-20 07:21:00,47.0,37.0,30.13,NNE,26,2.0,12.0,68,0.00,,---,0.00,0.00,VWS V14.00,2013-02-20 13:21:00,
2013-02-20 07:29:00,46.9,36.2,30.13,ENE,63,3.0,12.0,66,0.00,,---,0.00,0.00,VWS V14.00,2013-02-20 13:29:00,
2013-02-20 07:35:00,46.9,36.9,30.13,ENE,75,2.0,12.0,68,0.00,,---,0.00,9.00,VWS V14.00,2013-02-20 13:35:00,
2013-02-20 07:41:00,47.0,37.7,30.13,ENE,69,6.0,7.0,70,0.00,,---,0.00,9.00,VWS V14.00,2013-02-20 13:41:00,
2013-02-20 07:49:00,47.0,37.7,30.13,East,92,5.0,11.0,70,0.00,,---,0.00,12.00,VWS V14.00,2013-02-20 13:49:00,
2013-02-20 07:57:00,46.9,38.0,30.13,East,87,6.0,11.0,71,0.00,,---,0.00,18.00,VWS V14.00,2013-02-20 13:57:00,
2013-02-20 08:05:00,46.9,37.3,30.15,East,88,7.0,11.0,69,0.00,,---,0.00,7.00,VWS V14.00,2013-02-20 14:05:00,
2013-02-20 08:13:00,46.8,37.2,30.15,East,93,8.0,10.0,69,0.00,,---,0.00,12.00,VWS V14.00,2013-02-20 14:13:00,
2013-02-20 08:21:00,46.6,37.0,30.13,East,101,7.0,11.0,69,0.00,,---,0.00,7.00,VWS V14.00,2013-02-20 14:21:00,
2013-02-20 08:29:00,46.4,37.2,30.13,ENE,74,1.0,11.0,70,0.00,,---,0.00,11.00,VWS V14.00,2013-02-20 14:29:00,
2013-02-20 08:35:00,46.1,37.6,30.17,ENE,67,1.0,11.0,72,0.00,,---,0.00,21.00,VWS V14.00,2013-02-20 14:35:00,
2013-02-20 08:42:00,46.1,38.3,30.17,ESE,107,5.0,8.0,74,0.00,,---,0.00,62.00,VWS V14.00,2013-02-20 14:42:00,
2013-02-20 08:50:00,45.6,38.2,30.15,ENE,77,4.0,10.0,75,0.02,,---,0.02,47.00,VWS V14.00,2013-02-20 14:50:00,
2013-02-20 08:58:00,45.5,38.4,30.15,NNW,333,3.0,10.0,76,0.02,,---,0.02,7.00,VWS V14.00,2013-02-20 14:58:00,
2013-02-20 09:06:00,44.6,38.5,30.19,ENE,74,3.0,10.0,79,0.03,,---,0.03,5.00,VWS V14.00,2013-02-20 15:06:00,
2013-02-20 09:14:00,45.1,38.7,30.19,ENE,76,9.0,10.0,78,0.04,,---,0.04,18.00,VWS V14.00,2013-02-20 15:14:00,
2013-02-20 09:22:00,44.9,39.1,30.18,NE,42,3.0,10.0,80,0.06,,---,0.06,11.00,VWS V14.00,2013-02-20 15:22:00,
2013-02-20 09:30:00,44.3,38.8,30.18,NNE,29,4.0,10.0,81,0.07,,---,0.07,19.00,VWS V14.00,2013-02-20 15:30:00,
2013-02-20 09:39:00,44.1,39.0,30.17,NE,53,3.0,6.0,82,0.08,,---,0.08,47.00,VWS V14.00,2013-02-20 15:39:00,
2013-02-20 09:47:00,44.8,39.3,30.17,North,360,3.0,8.0,81,0.08,,---,0.08,47.00,VWS V14.00,2013-02-20 15:47:00,
2013-02-20 09:55:00,44.9,39.8,30.15,NE,41,2.0,8.0,82,0.08,,---,0.08,58.00,VWS V14.00,2013-02-20 15:55:00,
2013-02-20 10:03:00,44.5,39.0,30.15,NNE,29,3.0,8.0,81,0.08,,---,0.08,37.00,VWS V14.00,2013-02-20 16:03:00,
2013-02-20 10:11:00,44.6,39.5,30.15,ENE,75,7.0,7.0,82,0.05,,---,0.08,63.00,VWS V14.00,2013-02-20 16:11:00,
2013-02-20 10:19:00,44.9,39.8,30.15,ENE,77,5.0,14.0,82,0.05,,---,0.08,54.00,VWS V14.00,2013-02-20 16:19:00,
2013-02-20 10:27:00,44.4,38.6,30.13,NNW,342,4.0,14.0,80,0.05,,---,0.08,16.00,VWS V14.00,2013-02-20 16:27:00,
2013-02-20 10:35:00,44.0,38.9,30.18,NNE,15,1.0,14.0,82,0.05,,---,0.08,51.00,VWS V14.00,2013-02-20 16:35:00,
2013-02-20 10:43:00,44.0,38.9,30.18,NE,43,4.0,8.0,82,0.00,,---,0.08,86.00,VWS V14.00,2013-02-20 16:43:00,
2013-02-20 10:51:00,44.3,39.2,30.16,NNE,24,3.0,8.0,82,0.00,,---,0.08,63.00,VWS V14.00,2013-02-20 16:51:00,
2013-02-20 10:59:00,44.1,39.0,30.16,East,81,5.0,8.0,82,0.00,,---,0.08,39.00,VWS V14.00,2013-02-20 16:59:00,
2013-02-20 11:06:00,44.2,39.4,30.15,ENE,63,5.0,12.0,83,0.00,,---,0.08,28.00,VWS V14.00,2013-02-20 17:06:00,
2013-02-20 11:12:00,44.2,39.7,30.15,East,87,15.0,15.0,84,0.01,,---,0.09,148.00,VWS V14.00,2013-02-20 17:12:00,
2013-02-20 11:20:00,44.2,40.0,30.12,East,86,11.0,15.0,85,0.02,,---,0.10,163.00,VWS V14.00,2013-02-20 17:20:00,
2013-02-20 11:28:00,44.1,39.9,30.12,East,81,11.0,15.0,85,0.02,,---,0.10,174.00,VWS V14.00,2013-02-20 17:28:00,
2013-02-20 11:35:00,44.2,40.0,30.13,East,82,10.0,16.0,85,0.03,,---,0.11,146.00,VWS V14.00,2013-02-20 17:35:00,
2013-02-20 11:44:00,44.1,39.9,30.13,East,80,12.0,16.0,85,0.03,,---,0.11,95.00,VWS V14.00,2013-02-20 17:44:00,
2013-02-20 11:52:00,43.8,39.9,30.10,East,83,11.0,16.0,86,0.03,,---,0.11,67.00,VWS V14.00,2013-02-20 17:52:00,
2013-02-20 12:00:00,43.8,39.9,30.10,East,79,10.0,16.0,86,0.03,,---,0.11,76.00,VWS V14.00,2013-02-20 18:00:00,
2013-02-20 12:05:00,43.9,40.0,30.09,East,92,11.0,16.0,86,0.03,,---,0.11,81.00,VWS V14.00,2013-02-20 18:05:00,
2013-02-20 12:12:00,43.7,39.5,30.09,ENE,71,10.0,14.0,85,0.04,,---,0.12,44.00,VWS V14.00,2013-02-20 18:12:00,
2013-02-20 12:20:00,43.6,39.7,30.08,ENE,57,6.0,14.0,86,0.04,,---,0.12,47.00,VWS V14.00,2013-02-20 18:20:00,
2013-02-20 12:29:00,43.6,40.0,30.08,East,84,11.0,14.0,87,0.04,,---,0.12,54.00,VWS V14.00,2013-02-20 18:29:00,
2013-02-20 12:35:00,43.6,40.0,30.06,ENE,75,13.0,15.0,87,0.04,,---,0.12,56.00,VWS V14.00,2013-02-20 18:35:00,
2013-02-20 12:41:00,43.6,40.0,30.06,East,79,14.0,14.0,87,0.01,,---,0.12,35.00,VWS V14.00,2013-02-20 18:41:00,
2013-02-20 12:49:00,43.4,39.8,30.06,East,82,14.0,15.0,87,0.01,,---,0.12,53.00,VWS V14.00,2013-02-20 18:49:00,
2013-02-20 12:57:00,43.5,39.9,30.05,East,96,11.0,15.0,87,0.01,,---,0.12,58.00,VWS V14.00,2013-02-20 18:57:00,
2013-02-20 13:05:00,43.6,39.7,30.04,East,89,10.0,15.0,86,0.01,,---,0.12,46.00,VWS V14.00,2013-02-20 19:05:00,
2013-02-20 13:13:00,43.8,39.0,30.04,East,90,11.0,14.0,83,0.01,,---,0.12,60.00,VWS V14.00,2013-02-20 19:13:00,
2013-02-20 13:21:00,43.7,38.3,30.04,East,98,11.0,16.0,81,0.01,,---,0.12,72.00,VWS V14.00,2013-02-20 19:21:00,
2013-02-20 13:29:00,43.7,38.0,30.04,East,88,13.0,16.0,80,0.01,,---,0.12,105.00,VWS V14.00,2013-02-20 19:29:00,
2013-02-20 13:35:00,43.8,38.0,30.02,East,96,11.0,16.0,80,0.01,,---,0.12,118.00,VWS V14.00,2013-02-20 19:35:00,
2013-02-20 13:41:00,43.8,38.0,30.02,East,92,11.0,15.0,80,0.00,,---,0.12,118.00,VWS V14.00,2013-02-20 19:41:00,
2013-02-20 13:49:00,43.8,37.4,30.02,East,96,13.0,17.0,78,0.00,,---,0.12,65.00,VWS V14.00,2013-02-20 19:49:00,
2013-02-20 13:58:00,43.9,38.1,30.02,East,92,12.0,17.0,80,0.00,,---,0.12,81.00,VWS V14.00,2013-02-20 19:58:00,
2013-02-20 14:05:00,44.0,38.5,30.01,East,97,8.0,17.0,81,0.00,,---,0.12,102.00,VWS V14.00,2013-02-20 20:05:00,
2013-02-20 14:14:00,44.0,38.2,30.01,East,89,11.0,15.0,80,0.00,,---,0.12,95.00,VWS V14.00,2013-02-20 20:14:00,
2013-02-20 14:22:00,44.0,38.2,30.01,East,84,10.0,15.0,80,0.00,,---,0.12,76.00,VWS V14.00,2013-02-20 20:22:00,
2013-02-20 14:30:00,44.1,38.3,30.01,East,85,11.0,16.0,80,0.00,,---,0.12,98.00,VWS V14.00,2013-02-20 20:30:00,
2013-02-20 14:35:00,44.1,38.3,30.01,East,95,11.0,16.0,80,0.00,,---,0.12,88.00,VWS V14.00,2013-02-20 20:35:00,
2013-02-20 14:42:00,44.2,38.1,30.01,ENE,77,13.0,15.0,79,0.00,,---,0.12,111.00,VWS V14.00,2013-02-20 20:42:00,
2013-02-20 14:50:00,44.3,38.2,30.00,East,89,13.0,16.0,79,0.00,,---,0.12,111.00,VWS V14.00,2013-02-20 20:50:00,
2013-02-20 14:58:00,44.4,38.6,30.00,East,79,13.0,16.0,80,0.00,,---,0.12,185.00,VWS V14.00,2013-02-20 20:58:00,
2013-02-20 15:05:00,44.5,39.4,29.99,East,81,9.0,16.0,82,0.00,,---,0.12,49.00,VWS V14.00,2013-02-20 21:05:00,
2013-02-20 15:14:00,44.1,38.7,29.99,ENE,76,9.0,12.0,81,0.00,,---,0.12,72.00,VWS V14.00,2013-02-20 21:14:00,
2013-02-20 15:22:00,43.9,38.8,30.01,ENE,74,11.0,15.0,82,0.00,,---,0.12,77.00,VWS V14.00,2013-02-20 21:22:00,
2013-02-20 15:30:00,43.7,38.9,30.01,ENE,78,12.0,15.0,83,0.00,,---,0.12,62.00,VWS V14.00,2013-02-20 21:30:00,
2013-02-20 15:39:00,43.6,39.1,30.00,ENE,72,5.0,10.0,84,0.00,,---,0.12,114.00,VWS V14.00,2013-02-20 21:39:00,
2013-02-20 15:47:00,43.4,38.6,30.00,East,80,13.0,13.0,83,0.00,,---,0.12,58.00,VWS V14.00,2013-02-20 21:47:00,
2013-02-20 15:55:00,43.3,39.1,30.01,ENE,72,3.0,13.0,85,0.00,,---,0.12,72.00,VWS V14.00,2013-02-20 21:55:00,
2013-02-20 16:03:00,42.9,38.4,30.01,East,80,10.0,13.0,84,0.00,,---,0.12,67.00,VWS V14.00,2013-02-20 22:03:00,
2013-02-20 16:11:00,42.8,38.3,30.00,East,79,9.0,13.0,84,0.00,,---,0.12,113.00,VWS V14.00,2013-02-20 22:11:00,
2013-02-20 16:19:00,42.8,38.6,30.00,East,83,6.0,13.0,85,0.00,,---,0.12,58.00,VWS V14.00,2013-02-20 22:19:00,
2013-02-20 16:27:00,42.6,38.4,29.99,East,80,12.0,15.0,85,0.00,,---,0.12,28.00,VWS V14.00,2013-02-20 22:27:00,
2013-02-20 16:35:00,42.6,38.7,29.99,ENE,75,10.0,15.0,86,0.00,,---,0.12,84.00,VWS V14.00,2013-02-20 22:35:00,
2013-02-20 16:43:00,42.5,38.9,29.99,ENE,69,9.0,12.0,87,0.00,,---,0.12,47.00,VWS V14.00,2013-02-20 22:43:00,
2013-02-20 16:51:00,42.2,38.3,29.98,ENE,67,2.0,16.0,86,0.00,,---,0.12,19.00,VWS V14.00,2013-02-20 22:51:00,
2013-02-20 16:59:00,42.1,38.2,29.98,East,90,10.0,16.0,86,0.00,,---,0.12,25.00,VWS V14.00,2013-02-20 22:59:00,
2013-02-20 17:05:00,42.0,38.4,29.99,East,82,15.0,16.0,87,0.00,,---,0.12,26.00,VWS V14.00,2013-02-20 23:05:00,
2013-02-20 17:12:00,41.8,38.2,29.99,ENE,72,4.0,9.0,87,0.00,,---,0.12,16.00,VWS V14.00,2013-02-20 23:12:00,
2013-02-20 17:20:00,41.6,38.0,29.97,ENE,61,8.0,10.0,87,0.00,,---,0.12,42.00,VWS V14.00,2013-02-20 23:20:00,
2013-02-20 17:28:00,41.5,38.2,29.97,East,80,4.0,10.0,88,0.00,,---,0.12,19.00,VWS V14.00,2013-02-20 23:28:00,
2013-02-20 17:35:00,41.2,37.6,29.97,East,82,13.0,14.0,87,0.00,,---,0.12,9.00,VWS V14.00,2013-02-20 23:35:00,
2013-02-20 17:44:00,41.1,37.5,29.97,ENE,69,11.0,14.0,87,0.00,,---,0.12,7.00,VWS V14.00,2013-02-20 23:44:00,
2013-02-20 17:52:00,41.0,37.4,29.96,East,81,14.0,15.0,87,0.00,,---,0.12,9.00,VWS V14.00,2013-02-20 23:52:00,
2013-02-20 18:00:00,41.1,37.2,29.96,ENE,71,13.0,17.0,86,0.00,,---,0.12,0.00,VWS V14.00,2013-02-21 00:00:00,
2013-02-20 18:05:00,41.0,37.4,29.96,ENE,70,13.0,17.0,87,0.00,,---,0.12,0.00,VWS V14.00,2013-02-21 00:05:00,
2013-02-20 18:12:00,40.9,37.0,29.96,East,85,11.0,17.0,86,0.00,,---,0.12,0.00,VWS V14.00,2013-02-21 00:12:00,
2013-02-20 18:20:00,41.0,37.4,29.95,East,86,11.0,17.0,87,0.00,,---,0.12,0.00,VWS V14.00,2013-02-21 00:20:00,
2013-02-20 18:28:00,40.8,37.2,29.95,East,85,9.0,17.0,87,0.00,,---,0.12,0.00,VWS V14.00,2013-02-21 00:28:00,
2013-02-20 18:35:00,40.9,37.3,29.95,East,84,13.0,17.0,87,0.00,,---,0.12,0.00,VWS V14.00,2013-02-21 00:35:00,
2013-02-20 18:41:00,41.0,37.4,29.95,East,94,10.0,16.0,87,0.00,,---,0.12,0.00,VWS V14.00,2013-02-21 00:41:00,
2013-02-20 18:49:00,41.1,37.5,29.95,ENE,78,13.0,16.0,87,0.00,,---,0.12,0.00,VWS V14.00,2013-02-21 00:49:00,
2013-02-20 18:57:00,41.1,37.5,29.96,East,88,12.0,16.0,87,0.00,,---,0.12,0.00,VWS V14.00,2013-02-21 00:57:00,
2013-02-20 19:05:00,41.1,37.2,29.96,East,88,9.0,16.0,86,0.00,,---,0.12,0.00,VWS V14.00,2013-02-21 01:05:00,
2013-02-20 19:13:00,41.0,37.1,29.96,East,80,10.0,15.0,86,0.00,,---,0.12,0.00,VWS V14.00,2013-02-21 01:13:00,
2013-02-20 19:21:00,41.1,37.2,29.95,East,98,13.0,16.0,86,0.00,,---,0.12,0.00,VWS V14.00,2013-02-21 01:21:00,
2013-02-20 19:29:00,41.0,36.8,29.95,East,89,13.0,16.0,85,0.00,,---,0.12,0.00,VWS V14.00,2013-02-21 01:29:00,
2013-02-20 19:35:00,41.1,37.2,29.95,ENE,78,11.0,16.0,86,0.00,,---,0.12,0.00,VWS V14.00,2013-02-21 01:35:00,
2013-02-20 19:41:00,41.2,37.3,29.95,NE,50,5.0,13.0,86,0.00,,---,0.12,0.00,VWS V14.00,2013-02-21 01:41:00,
2013-02-20 19:49:00,41.2,37.0,29.95,East,93,11.0,15.0,85,0.00,,---,0.12,0.00,VWS V14.00,2013-02-21 01:49:00,
2013-02-20 19:58:00,41.3,37.1,29.95,ENE,76,9.0,15.0,85,0.00,,---,0.12,0.00,VWS V14.00,2013-02-21 01:58:00,
2013-02-20 20:05:00,41.3,37.1,29.95,East,86,9.0,15.0,85,0.00,,---,0.12,0.00,VWS V14.00,2013-02-21 02:05:00,
2013-02-20 20:14:00,41.4,37.2,29.95,East,80,13.0,13.0,85,0.00,,---,0.12,0.00,VWS V14.00,2013-02-21 02:14:00,
2013-02-20 20:22:00,41.5,37.0,29.95,ENE,75,13.0,14.0,84,0.00,,---,0.12,0.00,VWS V14.00,2013-02-21 02:22:00,
2013-02-20 20:30:00,41.5,37.3,29.95,East,88,9.0,14.0,85,0.00,,---,0.12,0.00,VWS V14.00,2013-02-21 02:30:00,
2013-02-20 20:35:00,41.5,37.3,29.94,ENE,74,8.0,14.0,85,0.00,,---,0.12,0.00,VWS V14.00,2013-02-21 02:35:00,
2013-02-20 20:42:00,41.6,37.1,29.94,East,79,11.0,11.0,84,0.00,,---,0.12,0.00,VWS V14.00,2013-02-21 02:42:00,
2013-02-20 20:50:00,41.6,37.4,29.93,East,90,8.0,14.0,85,0.00,,---,0.12,0.00,VWS V14.00,2013-02-21 02:50:00,
2013-02-20 20:58:00,41.7,37.2,29.93,ENE,65,6.0,14.0,84,0.00,,---,0.12,0.00,VWS V14.00,2013-02-21 02:58:00,
2013-02-20 21:06:00,41.8,37.0,29.93,East,83,10.0,14.0,83,0.00,,---,0.12,0.00,VWS V14.00,2013-02-21 03:06:00,
2013-02-20 21:15:00,42.0,37.5,29.93,East,82,14.0,14.0,84,0.00,,---,0.12,0.00,VWS V14.00,2013-02-21 03:15:00,
2013-02-20 21:23:00,42.1,37.0,29.92,ENE,72,10.0,14.0,82,0.00,,---,0.12,0.00,VWS V14.00,2013-02-21 03:23:00,
2013-02-20 21:31:00,42.1,36.7,29.92,ENE,74,13.0,18.0,81,0.00,,---,0.12,0.00,VWS V14.00,2013-02-21 03:31:00,
2013-02-20 21:39:00,42.2,36.8,29.92,East,89,13.0,14.0,81,0.00,,---,0.12,0.00,VWS V14.00,2013-02-21 03:39:00,
2013-02-20 21:47:00,42.3,36.6,29.92,East,87,7.0,14.0,80,0.00,,---,0.12,0.00,VWS V14.00,2013-02-21 03:47:00,
2013-02-20 21:55:00,42.3,36.6,29.93,East,82,13.0,16.0,80,0.00,,---,0.12,0.00,VWS V14.00,2013-02-21 03:55:00,
2013-02-20 22:03:00,42.5,36.8,29.93,East,84,12.0,16.0,80,0.00,,---,0.12,0.00,VWS V14.00,2013-02-21 04:03:00,
2013-02-20 22:11:00,42.4,37.0,29.91,East,79,13.0,14.0,81,0.00,,---,0.12,0.00,VWS V14.00,2013-02-21 04:11:00,
2013-02-20 22:19:00,42.4,36.7,29.91,East,90,7.0,16.0,80,0.00,,---,0.12,0.00,VWS V14.00,2013-02-21 04:19:00,
2013-02-20 22:28:00,42.4,36.7,29.91,East,84,12.0,17.0,80,0.00,,---,0.12,0.00,VWS V14.00,2013-02-21 04:28:00,
2013-02-20 22:35:00,42.3,36.6,29.90,ENE,78,15.0,17.0,80,0.00,,---,0.12,0.00,VWS V14.00,2013-02-21 04:35:00,
2013-02-20 22:44:00,42.4,36.7,29.90,East,89,11.0,15.0,80,0.00,,---,0.12,0.00,VWS V14.00,2013-02-21 04:44:00,
2013-02-20 22:52:00,42.5,36.8,29.89,East,90,11.0,16.0,80,0.00,,---,0.12,0.00,VWS V14.00,2013-02-21 04:52:00,
2013-02-20 23:00:00,42.6,36.9,29.89,East,81,12.0,16.0,80,0.00,,---,0.12,0.00,VWS V14.00,2013-02-21 05:00:00,
2013-02-20 23:05:00,42.6,36.5,29.87,East,86,12.0,16.0,79,0.00,,---,0.12,0.00,VWS V14.00,2013-02-21 05:05:00,
2013-02-20 23:08:00,42.7,37.0,29.87,East,92,11.0,12.0,80,0.00,,---,0.12,0.00,VWS V14.00,2013-02-21 05:08:00,
2013-02-20 23:16:00,42.8,37.1,29.87,East,88,13.0,15.0,80,0.00,,---,0.12,0.00,VWS V14.00,2013-02-21 05:16:00,
2013-02-20 23:20:00,42.9,36.8,29.86,East,83,10.0,15.0,79,0.00,,---,0.12,0.00,VWS V14.00,2013-02-21 05:20:00,
2013-02-20 23:28:00,43.0,36.6,29.86,East,90,15.0,16.0,78,0.00,,---,0.12,0.00,VWS V14.00,2013-02-21 05:28:00,
2013-02-20 23:35:00,43.0,36.6,29.85,East,92,10.0,16.0,78,0.00,,---,0.12,0.00,VWS V14.00,2013-02-21 05:35:00,
2013-02-20 23:41:00,43.1,37.0,29.85,East,84,14.0,14.0,79,0.00,,---,0.12,0.00,VWS V14.00,2013-02-21 05:41:00,
2013-02-20 23:49:00,43.5,36.8,29.85,East,81,13.0,15.0,77,0.00,,---,0.12,0.00,VWS V14.00,2013-02-21 05:49:00,
2013-02-20 23:57:00,43.5,36.8,29.85,East,89,9.0,15.0,77,0.00,,---,0.12,0.00,VWS V14.00,2013-02-21 05:57:00,